User: anonymous   Login
Location: 5810 Zion Rd, Cleves, OH 45002, USA
(39.1922°N, 84.7113°W)
Time: 07:15:39
(UTC-05:00)
Language:

XW-2A - Orbit

View from above orbital plane
View from above orbital plane
View from above satellite
View from above satellite

Ground track
Ground track

The orbit data is extracted from the following two-line orbital elements,

1 40903U 15049E   20029.14983830  .00001413  00000-0  34410-4 0  9999
2 40903  97.3091  77.8806 0014838  56.9541  17.5870 15.42564065244845
Epoch (UTC): 29 January 2020 03:35:46
Eccentricity: 0.0014838
inclination: 97.3091°
perigee height: 428 km
apogee height: 448 km
right ascension of ascending node: 77.8806°
argument of perigee: 56.9541°
revolutions per day: 15.42564065
mean anomaly at epoch: 17.5870°
orbit number at epoch: 24484

The dashed part of the orbit path shows where the satellite is in the earth's shadow,  

DLR